Flight Track Log - Related Links

Times and Time Zones

All times are in EDT time to prevent confusion due to time zone crossing. See the EGF3706 flight status page for this flight to view local times or setup timezone preferences in your user account.

Time Position Orientation Groundspeed Altitude Reporting Facility
EDT Latitude Longitude Course Direction KTS MPH feet Rate Location/Type
Sun 02:30:49 PM 41.9142 -72.7972 261° West 194 223 3,700  Level Boston Center
Sun 02:31:00 PM 42.2175 -72.9004 340° North  Level FlightAware Approximate
Sun 02:32:00 PM 42.3181 -72.9621 334° Northwest  Level FlightAware Approximate
Sun 02:32:16 PM 41.9847 -72.8731 321° Northwest 274 315 4,200  Level Boston Center
Sun 02:33:00 PM 42.4209 -73.0187 340° North  Level FlightAware Approximate
Sun 02:33:16 PM 42.0556 -72.8903 350° North 268 308 7,000  Level Boston Center
Sun 02:34:00 PM 42.5252 -73.0709 340° North  Level FlightAware Approximate
Sun 02:34:16 PM 42.1244 -72.9047 351° North 263 303 9,400  Level Boston Center
Sun 02:35:16 PM 42.2097 -72.9278 349° North 276 318 11,700 2,100 Climbing Boston Center
Sun 02:36:16 PM 42.2867 -72.9508 348° North 300 345 13,600 1,950 Climbing Boston Center
Sun 02:37:16 PM 42.3719 -72.9967 338° Northwest 305 351 15,600 1,700 Climbing Boston Center
Sun 02:38:16 PM 42.4489 -73.0394 338° Northwest 316 364 17,000 900 Climbing Boston Center
Sun 02:39:16 PM 42.5403 -73.0881 339° North 316 364 17,400 950 Climbing Boston Center
Sun 02:40:16 PM 42.6294 -73.1400 337° Northwest 335 386 18,900 1,250 Climbing Boston Center
Sun 02:41:16 PM 42.7125 -73.1889 337° Northwest 346 398 19,900 1,200 Climbing Boston Center
Sun 02:42:16 PM 42.8061 -73.2381 339° North 357 411 21,300 1,100 Climbing Boston Center
Sun 02:43:16 PM 42.8850 -73.2844 337° Northwest 363 418 22,100 900 Climbing Boston Center
Sun 02:44:16 PM 42.9925 -73.3739 329° Northwest 374 430 23,100 1,050 Climbing Boston Center
Sun 02:45:16 PM 43.0078 -73.5333 278° West 359 413 24,200 1,100 Climbing Boston Center
Sun 02:46:16 PM 43.0208 -73.6953 276° West 387 445 25,300 1,200 Climbing Boston Center
Sun 02:47:16 PM 43.0294 -73.8544 274° West 411 473 26,600 950 Climbing Boston Center
Sun 02:48:16 PM 43.0397 -74.0225 275° West 431 496 27,200 700 Climbing Boston Center
Sun 02:49:16 PM 43.0519 -74.1875 276° West 443 510 28,000 650 Climbing Boston Center
Sun 02:50:16 PM 43.0617 -74.3611 274° West 450 518 28,500 700 Climbing Boston Center
Sun 02:51:16 PM 43.0708 -74.5378 274° West 461 531 29,400 800 Climbing Boston Center
Sun 02:52:16 PM 43.0822 -74.7114 275° West 466 536 30,100 850 Climbing Boston Center
Sun 02:53:16 PM 43.0931 -74.8911 275° West 466 536 31,100 1,050 Climbing Boston Center
Sun 02:54:16 PM 43.1017 -75.0650 274° West 466 536 32,200 1,050 Climbing Boston Center
Sun 02:55:16 PM 43.1122 -75.2417 275° West 466 536 33,200 850 Climbing Boston Center
Sun 02:56:16 PM 43.1200 -75.4183 274° West 466 536 33,900 400 Climbing Boston Center
Sun 02:57:16 PM 43.1300 -75.5983 274° West 466 536 34,000 400 Climbing Boston Center
Sun 02:58:16 PM 43.1408 -75.7953 274° West 472 543 34,700 745 Climbing Boston Center
Sun 02:59:49 PM 43.1333 -76.0500 268° West 480 552 35,900 557 Climbing Toronto Center
Sun 03:00:36 PM 43.1594 -76.2197 282° West 485 558 36,000 56 Climbing Cleveland Center
Sun 03:01:36 PM 43.1622 -76.4044 271° West 485 558 36,000  Level Cleveland Center
Sun 03:02:36 PM 43.1603 -76.5842 269° West 485 558 36,000  Level Cleveland Center
Sun 03:03:36 PM 43.1600 -76.7633 270° West 480 552 36,000  Level Cleveland Center
Sun 03:04:36 PM 43.1597 -76.9456 270° West 480 552 36,000  Level Cleveland Center
Sun 03:05:36 PM 43.1569 -77.1336 269° West 485 558 36,000  Level Cleveland Center
Sun 03:06:36 PM 43.1581 -77.3158 271° West 490 564 36,000  Level Cleveland Center
Sun 03:07:36 PM 43.1550 -77.5039 269° West 490 564 36,000  Level Cleveland Center
Sun 03:08:36 PM 43.1533 -77.6861 269° West 495 570 36,000  Level Cleveland Center
Sun 03:09:36 PM 43.1536 -77.8683 270° West 490 564 36,000  Level Cleveland Center
Sun 03:10:36 PM 43.1494 -78.0478 268° West 490 564 36,000  Level Cleveland Center
Sun 03:11:36 PM 43.1469 -78.2272 269° West 479 551 36,000  Level Cleveland Center
Sun 03:12:36 PM 43.1439 -78.3894 269° West 479 551 36,000  Level Cleveland Center
Sun 03:13:36 PM 43.1389 -78.5689 268° West 479 551 36,000  Level Cleveland Center
Sun 03:14:36 PM 43.1333 -78.7483 268° West 479 551 36,000  Level Cleveland Center
Sun 03:15:36 PM 43.1278 -78.9247 268° West 479 551 36,000  Level Cleveland Center
Sun 03:16:49 PM 43.1167 -79.1500 266° West 470 541 36,000  Level Toronto Center
Sun 03:17:49 PM 43.1000 -79.3167 262° West 470 541 36,000  Level Toronto Center
Sun 03:18:49 PM 43.1000 -79.5167 270° West 480 552 36,000  Level Toronto Center
Sun 03:19:49 PM 43.0833 -79.6833 262° West 470 541 36,000  Level Toronto Center
Sun 03:20:49 PM 43.0833 -79.8667 270° West 470 541 36,000  Level Toronto Center
Sun 03:21:49 PM 43.0833 -80.0500 270° West 470 541 36,000  Level Toronto Center
Sun 03:22:49 PM 43.0667 -80.2000 261° West 470 541 36,000  Level Toronto Center
Sun 03:23:49 PM 43.0667 -80.4167 270° West 470 541 36,000  Level Toronto Center
Sun 03:24:49 PM 43.0500 -80.5833 262° West 470 541 36,000  Level Toronto Center
Sun 03:25:49 PM 43.0500 -80.7500 270° West 470 541 36,000  Level Toronto Center
Sun 03:26:49 PM 43.0333 -80.9333 263° West 470 541 36,000  Level Toronto Center
Sun 03:27:49 PM 43.0167 -81.1167 263° West 470 541 36,000  Level Toronto Center
Sun 03:28:49 PM 43.0167 -81.2667 270° West 470 541 36,000  Level Toronto Center
Sun 03:29:49 PM 43.0167 -81.4500 270° West 470 541 36,000  Level Toronto Center
Sun 03:30:49 PM 43.0167 -81.6333 270° West 470 541 36,000  Level Toronto Center
Sun 03:31:49 PM 43.0167 -81.8167 270° West 470 541 36,000  Level Toronto Center
Sun 03:32:49 PM 43.0000 -81.9833 262° West 470 541 36,000  Level Toronto Center
Sun 03:33:49 PM 43.0000 -82.1833 270° West 470 541 36,000  Level Toronto Center
Sun 03:34:49 PM 43.0000 -82.3500 270° West 470 541 36,000  Level Toronto Center
Sun 03:35:49 PM 43.0000 -82.5333 270° West 470 541 36,000  Level Toronto Center
Sun 03:36:49 PM 42.9833 -82.7167 263° West 470 541 36,000  Level Toronto Center
Sun 03:37:49 PM 42.9833 -82.9000 270° West 470 541 36,000  Level Toronto Center
Sun 03:38:49 PM 42.9833 -83.0667 270° West 470 541 36,000  Level Toronto Center
Sun 03:39:49 PM 42.9667 -83.2333 262° West 470 541 36,000 -200 Level Toronto Center
Sun 03:40:49 PM 42.9667 -83.4333 270° West 470 541 35,600 -650 Descending Toronto Center
Sun 03:41:49 PM 42.9667 -83.6000 270° West 480 552 34,700 -1,000 Descending Toronto Center
Sun 03:42:49 PM 42.9500 -83.8000 264° West 480 552 33,600 -1,008 Descending Toronto Center
Sun 03:43:48 PM 42.9467 -83.9642 268° West 475 547 32,700 -787 Descending Chicago Center
Sun 03:44:51 PM 42.9281 -84.1436 262° West 478 550 32,000 -336 Descending Chicago Center
Sun 03:45:53 PM 42.9103 -84.3211 262° West 475 547 32,000  Level Chicago Center
Sun 03:46:55 PM 42.8931 -84.5011 263° West 478 550 32,000  Level Chicago Center
Sun 03:47:57 PM 42.8744 -84.6808 262° West 479 551 32,000  Level Chicago Center
Sun 03:48:59 PM 42.8550 -84.8608 262° West 481 554 32,000  Level Chicago Center
Sun 03:50:01 PM 42.8328 -85.0772 262° West 481 554 32,000  Level Chicago Center
Sun 03:51:03 PM 42.8125 -85.2578 261° West 482 555 32,000 -774 Level Chicago Center
Sun 03:52:05 PM 42.7925 -85.4394 262° West 484 557 30,400 -1,887 Descending Chicago Center
Sun 03:53:07 PM 42.7644 -85.6192 258° West 484 557 28,100 -2,226 Descending Chicago Center
Sun 03:54:09 PM 42.7328 -85.7883 256° West 466 536 25,800 -2,177 Descending Chicago Center
Sun 03:55:11 PM 42.7028 -85.9583 257° West 459 528 23,600 -2,081 Descending Chicago Center
Sun 03:56:13 PM 42.6742 -86.1189 256° West 444 511 21,500 -1,742 Descending Chicago Center
Sun 03:57:15 PM 42.6433 -86.2881 256° West 388 447 20,000 -720 Descending Chicago Center
Sun 03:58:18 PM 42.6164 -86.4228 255° West 371 427 20,000 -624 Level Chicago Center
Sun 03:59:20 PM 42.5894 -86.5675 256° West 391 450 18,700 -1,694 Descending Chicago Center
Sun 04:00:22 PM 42.5647 -86.7064 256° West 381 438 16,500 -2,226 Descending Chicago Center
Sun 04:01:24 PM 42.5339 -86.8322 252° West 364 419 14,100 -2,274 Descending Chicago Center
Sun 04:02:26 PM 42.5022 -86.9472 250° West 338 389 11,800 -1,742 Descending Chicago Center
Sun 04:03:28 PM 42.4686 -87.0561 247° West 320 368 10,500 -1,113 Descending Chicago Center
Sun 04:04:30 PM 42.4353 -87.1814 250° West 294 338 9,500 -726 Descending Chicago Center
Sun 04:05:32 PM 42.4089 -87.2775 250° West 275 316 9,000 -726 Descending Chicago Center
Sun 04:06:34 PM 42.3806 -87.3750 249° West 279 321 8,000 -871 Descending Chicago Center
Sun 04:07:36 PM 42.3519 -87.4747 249° West 268 308 7,200 -484 Descending Chicago Center
Sun 04:08:38 PM 42.3103 -87.5478 232° Southwest 272 313 7,000 -97 Descending Chicago Center
Sun 04:09:40 PM 42.2525 -87.6197 223° Southwest 239 275 7,000 -435 Level Chicago Center
Sun 04:10:42 PM 42.2033 -87.6692 217° Southwest 222 255 6,100 -871 Descending Chicago Center

Login

Don't have an account? Register now (free) for customized features, flight alerts, and more!